Home > Weather > Coventry > Past weeks

Flag for United Kingdom Weather for the Past 2 Weeks in Coventry, England, United Kingdom

Now
39 °F

Passing clouds.


Feels Like: 32 °F
Forecast: 35 / 50 °F
Wind: 10 mph from West

Location: Coventry Airport

Current Time: Apr 29, 2016 at 3:08:35 AM

Latest Report: Apr 29, 2016 at 1:50 AM


Visibility: N/A

Pressure: 29.74 "Hg

Humidity: 75%

Dew Point: 32 °F

Location of CoventryLocation

Historic Weather in Coventry — Graph

°F

Coventry Temperature Yesterday

Maximum temperature yesterday: 50 °F (at 1:20 PM)
Minimum temperature yesterday: 34 °F (at 1:50 AM)
Average temperature yesterday: 44 °F

High & Low Weather Summary for the Past Weeks

 TemperatureHumidityPressure
High61 °F (Apr 21, 3:50 PM)100% (Apr 27, 9:50 PM)30.48 "Hg (Apr 27, 9:50 PM)
Low34 °F (Apr 28, 1:50 AM)35% (Apr 17, 6:20 PM)29.47 "Hg (Apr 15, 5:50 PM)
Average48 °F68%29.99 "Hg
* Reported Apr 14 1:50 AM — Apr 29 1:20 AM, Coventry, Weather by CustomWeather, © 2016

Note: Actual official high and low records may vary slightly from our data, if they occured in-between our weather recording intervals... More about our weather records

Advertising

Coventry Weather History for the Previous 24 Hours

Scroll right to see more
 ConditionsComfort  
Time TempWeatherWind HumidityBarometerVisibility
1:20 AM
Fri, Apr 29
39 °FPassing clouds.13 mph81%29.74 "HgN/A
12:50 AM39 °FPassing clouds.9 mph87%29.74 "HgN/A
12:20 AM39 °FPassing clouds.9 mph87%29.74 "HgN/A
11:50 PM
Thu, Apr 28
41 °FPassing clouds.9 mph81%29.74 "HgN/A
11:20 PM43 °FPassing clouds.10 mph76%29.74 "HgN/A
10:50 PM43 °FPassing clouds.13 mph76%29.74 "HgN/A
10:20 PM43 °FPassing clouds.10 mph81%29.71 "HgN/A
9:50 PM43 °FScattered showers. Passing clouds.12 mph81%29.74 "HgN/A
9:20 PM43 °FScattered showers. Partly sunny.5 mph87%29.74 "HgN/A
8:50 PM43 °FScattered showers. Partly sunny.10 mph87%29.74 "HgN/A
8:20 PM43 °FScattered showers. Passing clouds.8 mph87%29.74 "HgN/A
7:50 PM43 °FScattered showers. Partly sunny.12 mph87%29.74 "HgN/A
7:20 PM41 °FThunderstorms. Broken clouds.18 mph87%29.74 "Hg3 mi
6:50 PM48 °FLight rain. Scattered clouds.13 mph71%29.71 "HgN/A
6:20 PM48 °FScattered showers. Scattered clouds.14 mph76%29.74 "Hg4 mi
5:50 PM50 °FRain showers. Scattered clouds.20 mph62%29.74 "Hg4 mi
5:20 PM50 °FScattered showers. Broken clouds.18 mph62%29.77 "HgN/A
4:50 PM48 °FSprinkles. Partly sunny.18 mph66%29.77 "HgN/A
4:20 PM48 °FSprinkles. Partly sunny.22 mph62%29.77 "HgN/A
3:50 PM48 °FSprinkles. Partly sunny.20 mph62%29.80 "HgN/A
3:20 PM48 °FSprinkles. Scattered clouds.18 mph62%29.80 "HgN/A
2:50 PM48 °FSprinkles. Scattered clouds.16 mph62%29.83 "HgN/A
2:20 PM48 °FScattered clouds.15 mph58%29.83 "HgN/A
1:20 PM50 °FScattered showers. Scattered clouds.17 mph50%29.86 "HgN/A
12:20 PM48 °FScattered clouds.12 mph54%29.86 "HgN/A
11:50 AM48 °FScattered clouds.13 mph54%29.89 "HgN/A
11:20 AM48 °FPassing clouds.15 mph58%29.89 "HgN/A
10:50 AM46 °FPassing clouds.15 mph66%29.92 "HgN/A
10:20 AM45 °FPassing clouds.13 mph71%29.92 "HgN/A
9:20 AM43 °FSunny.9 mph71%29.92 "Hg10 mi
8:50 AM41 °FSunny.8 mph76%29.95 "Hg10 mi
8:20 AM37 °FSunny.7 mph87%29.95 "Hg10 mi
Weather by CustomWeather, © 2016

See weather overviewHow to use our weather pages